Location: Churchill Northern Studies Centre
(58.7378°N, 93.8201°W)
Time: 20:46:18
(UTC-05:00)

Envisat - Pass Details

Date: 14 October 2017
Orbit: 764 x 766 km, 98.2° (Epoch: 16 October)

Event Time Altitude Azimuth Distance (km) Brightness Sun altitude
Exits shadow 19:20:00 - 120° (ESE) 2,479 5.1 -9.7°
Reaches altitude 10° 19:20:29 10° 118° (ESE) 2,306 4.9 -9.8°
Maximum altitude 19:24:58 33° 56° (NE) 1,286 3.8 -10.4°
Drops below altitude 10° 19:29:28 10° 354° (N) 2,318 5.6 -10.9°
Sets 19:31:58 0° 345° (NNW) 3,248 6.5 -11.3°
